BEIDOU-3 IGSO-2 (C39)

Last updated on Dec. 12, 2019, 4:25 a.m. UTC

1 44337U 19035A   19345.49578185 -.00000011  00000-0  00000+0 0  9990
2 44337  55.0532 180.0390 0012183 181.7360   1.6419  1.00295847  1834
UTC
Height (km)
Latitude
Longitude
Inclination
Orbital Period
UTC large
Height (km)
Speed (km/s)
/
Latitude / Longitude
Inclination (degrees)
Orbital Period (minutes)
Azimuth
Elevation
Range (km)
Doppler Factor
iOS Compass Heading
iOS Angle

Next 30 passes for location: Hong Kong

Rise time Rise Azimuth (degrees) Set time Set Azimuth (degrees) Duration Max altitude (degrees)

No matching passes for this satellites